Change the Weather History Date:

Friday, May 9, 2014

  Actual Average Record
Temperature  
Mean Temperature 40 °F -  
Max Temperature 48 °F 56 °F 85 °F (1953)
Min Temperature 33 °F 37 °F 14 °F (1966)
Degree Days  
Heating Degree Days 24    
Moisture  
Dew Point 39 °F    
Average Humidity 90    
Maximum Humidity 100    
Minimum Humidity 76    
Precipitation  
Precipitation 0.00 in - - ()
Sea Level Pressure  
Sea Level Pressure 29.55 in    
Wind  
Wind Speed 5 mph (WSW)    
Max Wind Speed 23 mph    
Max Gust Speed 31 mph    
Visibility 5 miles    
Events Fog , Rain    
Averages and records for this station are not official NWS values.
T = Trace of Precipitation, MM = Missing Value Source: NWS Daily Summary

Daily Weather History Graph

Daily Weather History Graph

Search for Another Location

Airport or City:

Trip Planner

Search our weather history database for the weather conditions in past years. The results will help you decide how hot, cold, wet, or windy it might be!

Date:

Astronomy

May. 09, 2014 Rise Set
Actual Time 5:41 AM CDT 8:28 PM CDT
Civil Twilight 5:06 AM CDT 9:03 PM CDT
Nautical Twilight 4:22 AM CDT 9:48 PM CDT
Astronomical Twilight 3:30 AM CDT 10:40 PM CDT
Moon 3:07 PM CDT (5/9) 3:04 AM CDT (5/9)
Length of Visible Light 15h 56m
Length of Day
14h 47m
Waxing Gibbous, 74% of the Moon is Illuminated
May 9
Waxing Gibbous
May 14
Full
May 21
Last Quarter
May 28
New
Jun 5
First Quarter

Hourly Weather History & Observations

Time (CDT) Temp. Windchill Dew Point Humidity Pressure Visibility Wind Dir Wind Speed Gust Speed Precip Events Conditions
12:13 AM 35.6 °F - 33.8 °F 93% 29.64 in 1.0 mi Calm Calm - N/A Rain Light Rain
12:33 AM 37.4 °F 27.2 °F 35.6 °F 93% 29.53 in 1.0 mi NE 19.6 mph - N/A Rain Light Rain
12:54 AM 37.4 °F 32.8 °F 35.6 °F 93% 29.58 in 2.5 mi ESE 5.8 mph 17.3 mph N/A   Light Drizzle
1:13 AM 35.6 °F - 35.6 °F 100% 29.57 in 1.2 mi Calm Calm - N/A   Overcast
1:33 AM 35.6 °F - 33.8 °F 93% 29.56 in 0.8 mi Calm Calm - N/A   Overcast
1:54 AM 35.6 °F - 33.8 °F 93% 29.55 in 0.5 mi Calm Calm - N/A Fog Fog
2:13 AM 35.6 °F - 33.8 °F 93% 29.55 in 0.5 mi Calm Calm - N/A Fog Fog
2:33 AM 35.6 °F - 33.8 °F 93% 29.55 in 0.5 mi Calm Calm - N/A Fog Fog
2:53 AM 35.6 °F - 33.8 °F 93% 29.53 in 0.5 mi Calm Calm - N/A Fog Fog
3:13 AM 33.8 °F - 33.8 °F 100% 29.51 in 0.5 mi Calm Calm - N/A Fog Fog
3:34 AM 33.8 °F - 33.8 °F 100% 29.51 in 0.5 mi Calm Calm - N/A Fog Fog
3:53 AM 35.6 °F - 33.8 °F 93% 29.51 in 0.8 mi Calm Calm - N/A   Overcast
4:13 AM 35.6 °F - 33.8 °F 93% 29.50 in 2.0 mi Calm Calm - N/A   Overcast
4:34 AM 35.6 °F - 33.8 °F 93% 29.50 in 1.2 mi Calm Calm - N/A   Overcast
4:53 AM 35.6 °F - 33.8 °F 93% 29.49 in 1.0 mi Calm Calm - N/A   Overcast
5:13 AM 35.6 °F - 33.8 °F 93% 29.49 in 1.2 mi Calm Calm - N/A   Overcast
5:34 AM 35.6 °F - 33.8 °F 93% 29.47 in 0.8 mi Calm Calm - N/A   Overcast
5:53 AM 35.6 °F - 33.8 °F 93% 29.47 in 0.8 mi Calm Calm - N/A   Overcast
6:13 AM 35.6 °F - 33.8 °F 93% 29.47 in 0.2 mi Calm Calm - N/A Fog Fog
6:34 AM 35.6 °F - 33.8 °F 93% 29.47 in 0.2 mi Calm Calm - N/A Fog Fog
6:53 AM 33.8 °F - 33.8 °F 100% 29.47 in 0.2 mi Calm Calm - N/A Fog Fog
7:13 AM 35.6 °F - 33.8 °F 93% 29.47 in 0.2 mi Calm Calm - N/A Fog Fog
7:33 AM 35.6 °F - 33.8 °F 93% 29.46 in 0.2 mi Calm Calm - N/A Fog Fog
7:53 AM 35.6 °F - 33.8 °F 93% 29.46 in 0.5 mi Calm Calm - N/A Fog Fog
8:14 AM 35.6 °F - 33.8 °F 93% 29.47 in 0.5 mi Calm Calm - N/A Fog Fog
8:33 AM 35.6 °F - 35.6 °F 100% 29.47 in 1.5 mi Calm Calm - N/A   Light Drizzle
8:54 AM 35.6 °F - 35.6 °F 100% 29.47 in 1.2 mi Calm Calm - N/A   Light Drizzle
9:13 AM 37.4 °F - 35.6 °F 93% 29.46 in 1.2 mi Calm Calm - N/A   Light Drizzle
9:33 AM 37.4 °F - 35.6 °F 93% 29.46 in 1.8 mi Calm Calm - N/A   Overcast
9:54 AM 37.4 °F - 35.6 °F 93% 29.46 in 4.0 mi Calm Calm - N/A   Overcast
10:13 AM 37.4 °F - 37.4 °F 100% 29.47 in 4.0 mi Calm Calm - N/A   Overcast
10:33 AM 39.2 °F - 37.4 °F 93% 29.47 in 1.5 mi Calm Calm - N/A   Overcast
10:54 AM 39.2 °F - 37.4 °F 93% 29.47 in 1.0 mi Calm Calm - N/A   Overcast
11:13 AM 41.0 °F - 39.2 °F 93% 29.47 in 1.8 mi Calm Calm - N/A   Overcast
11:33 AM 37.4 °F - 35.6 °F 93% 29.46 in 0.5 mi Calm Calm - N/A   Light Drizzle
11:54 AM 46.4 °F 41.1 °F 44.6 °F 93% 29.46 in 2.5 mi SW 11.5 mph - N/A   Overcast
12:13 PM 46.4 °F 40.1 °F 46.4 °F 100% 29.46 in 4.0 mi WSW 15.0 mph - N/A   Overcast
12:34 PM 46.4 °F 40.1 °F 44.6 °F 93% 29.47 in 7.0 mi WSW 15.0 mph - N/A   Overcast
12:53 PM 44.6 °F 37.2 °F 44.6 °F 100% 29.47 in 10.0 mi West 17.3 mph - N/A   Overcast
1:13 PM 44.6 °F 37.4 °F 44.6 °F 100% 29.48 in 7.0 mi WSW 16.1 mph - N/A   Overcast
1:34 PM 44.6 °F 37.2 °F 42.8 °F 93% 29.49 in 7.0 mi WSW 17.3 mph 21.9 mph N/A   Overcast
1:53 PM 44.6 °F 37.4 °F 42.8 °F 93% 29.51 in 10.0 mi WSW 16.1 mph - N/A   Overcast
2:13 PM 44.6 °F 37.4 °F 42.8 °F 93% 29.52 in 10.0 mi WSW 16.1 mph 20.7 mph N/A   Overcast
2:33 PM 44.6 °F 37.4 °F 42.8 °F 93% 29.52 in 10.0 mi WSW 16.1 mph 19.6 mph N/A   Overcast
2:53 PM 44.6 °F 37.2 °F 42.8 °F 93% 29.53 in 10.0 mi WSW 17.3 mph 25.3 mph N/A   Overcast
3:14 PM 44.6 °F 36.9 °F 42.8 °F 93% 29.54 in 10.0 mi West 18.4 mph 26.5 mph N/A   Overcast
3:33 PM 46.4 °F 38.7 °F 42.8 °F 87% 29.54 in 10.0 mi West 20.7 mph 26.5 mph N/A   Overcast
3:53 PM 46.4 °F 39.0 °F 42.8 °F 87% 29.55 in 10.0 mi West 19.6 mph 28.8 mph N/A   Overcast
4:13 PM 46.4 °F 38.5 °F 42.8 °F 87% 29.56 in 10.0 mi West 21.9 mph 27.6 mph N/A   Light Drizzle
4:33 PM 46.4 °F 39.2 °F 41.0 °F 81% 29.56 in 10.0 mi West 18.4 mph - N/A   Overcast
4:53 PM 46.4 °F 38.3 °F 41.0 °F 81% 29.57 in 10.0 mi West 23.0 mph 31.1 mph N/A   Overcast
5:14 PM 48.2 °F - 41.0 °F 76% 29.59 in 10.0 mi West 21.9 mph 29.9 mph N/A   Overcast
5:33 PM 48.2 °F - 41.0 °F 76% 29.60 in 10.0 mi West 19.6 mph 29.9 mph N/A   Overcast
5:53 PM 46.4 °F 40.1 °F 42.8 °F 87% 29.60 in 10.0 mi West 15.0 mph 23.0 mph N/A   Overcast
6:14 PM 46.4 °F 39.2 °F 42.8 °F 87% 29.61 in 10.0 mi West 18.4 mph 24.2 mph N/A   Overcast
6:33 PM 46.4 °F 39.0 °F 42.8 °F 87% 29.62 in 10.0 mi West 19.6 mph 27.6 mph N/A   Overcast
6:53 PM 48.2 °F - 42.8 °F 82% 29.63 in 10.0 mi West 16.1 mph 23.0 mph N/A   Overcast
7:14 PM 48.2 °F - 42.8 °F 82% 29.64 in 10.0 mi West 17.3 mph 23.0 mph N/A   Overcast
7:33 PM 48.2 °F - 42.8 °F 82% 29.65 in 10.0 mi West 16.1 mph 26.5 mph N/A   Overcast
7:54 PM 48.2 °F - 41.0 °F 76% 29.66 in 10.0 mi West 18.4 mph 29.9 mph N/A   Overcast
8:13 PM 48.2 °F - 41.0 °F 76% 29.67 in 10.0 mi WSW 13.8 mph 23.0 mph N/A   Mostly Cloudy
8:34 PM 46.4 °F 40.4 °F 41.0 °F 81% 29.68 in 10.0 mi WSW 13.8 mph 24.2 mph N/A   Overcast
8:53 PM 48.2 °F - 42.8 °F 82% 29.69 in 10.0 mi WSW 9.2 mph 12.7 mph N/A   Overcast
9:13 PM 46.4 °F 42.9 °F 42.8 °F 87% 29.70 in 10.0 mi WSW 6.9 mph 17.3 mph N/A   Overcast
9:34 PM 46.4 °F 45.2 °F 42.8 °F 87% 29.71 in 10.0 mi WSW 3.5 mph - N/A   Scattered Clouds
9:53 PM 46.4 °F 42.9 °F 42.8 °F 87% 29.72 in 10.0 mi WSW 6.9 mph - N/A   Mostly Cloudy
10:13 PM 46.4 °F - 42.8 °F 87% 29.73 in 10.0 mi Calm Calm - N/A   Overcast
10:33 PM 46.4 °F - 42.8 °F 87% 29.73 in 10.0 mi Calm Calm - N/A   Overcast
10:53 PM 46.4 °F - 41.0 °F 81% 29.74 in 10.0 mi Calm Calm - N/A   Overcast
11:14 PM 46.4 °F - 41.0 °F 81% 29.75 in 10.0 mi Calm Calm - N/A   Mostly Cloudy
11:33 PM 44.6 °F - 41.0 °F 87% 29.75 in 10.0 mi Calm Calm - N/A   Clear
11:53 PM 44.6 °F - 39.2 °F 81% 29.75 in 10.0 mi Calm Calm - N/A   Clear